Weather History for Miami, FL

Change the Weather History Date:

Sunday, March 10, 2013

  Actual Average Record
Temperature  
Mean Temperature 71 °F 72 °F  
Max Temperature 77 °F 80 °F 89 °F (1964)
Min Temperature 65 °F 64 °F 37 °F (1940)
Degree Days  
Heating Degree Days 0 0  
Month to date heating degree days 24 8  
Since 1 July heating degree days 60 124  
Cooling Degree Days 6 8  
Month to date cooling degree days 12 72  
Year to date cooling degree days 491 394  
Growing Degree Days 20 (Base 50)    
Moisture  
Dew Point 54 °F    
Average Humidity 56    
Maximum Humidity 68    
Minimum Humidity 43    
Precipitation  
Precipitation T in 0.09 in 2.35 in (1986)
Month to date precipitation T 0.85  
Year to date precipitation 2.39 4.72  
Snow  
Snow 0.00 in - - ()
Month to date snowfall 0.0  
Since 1 July snowfall 0.0  
Snow Depth 0.00 in    
Sea Level Pressure  
Sea Level Pressure 30.11 in    
Wind  
Wind Speed 10 mph (East)    
Max Wind Speed 18 mph    
Max Gust Speed 24 mph    
Visibility 10 miles    
Events      
T = Trace of Precipitation, MM = Missing Value Source: NWS Daily Summary

Daily Weather History Graph

Daily Weather History Graph

Search for Another Location

Airport:

Trip Planner

Search our weather history database for the weather conditions in past years. The results will help you decide how hot, cold, wet, or windy it might be!

Date:

Astronomy

Mar. 10, 2013 Rise Set
Actual Time 7:35 AM EDT 7:27 PM EDT
Civil Twilight 7:12 AM EDT 7:50 PM EDT
Nautical Twilight 6:45 AM EDT 8:17 PM EDT
Astronomical Twilight 6:19 AM EDT 8:44 PM EDT
Moon 6:30 AM EDT (3/10) 6:34 PM EDT (3/10)
Length of Visible Light 12h 38m
Length of Day
11h 52m
Waning Crescent, 2% of the Moon is Illuminated
Mar 10
Waning Crescent
Mar 11
New
Mar 19
First Quarter
Mar 27
Full
Apr 3
Last Quarter

Hourly Weather History & Observations

Time (EDT) Temp. Dew Point Humidity Pressure Visibility Wind Dir Wind Speed Gust Speed Precip Events Conditions
12:53 AM 66.9 °F 51.1 °F 57% 30.16 in 10.0 mi East 11.5 mph - N/A   Mostly Cloudy
1:53 AM 66.0 °F 51.1 °F 59% 30.13 in 10.0 mi East 8.1 mph - N/A   Mostly Cloudy
3:53 AM 66.0 °F 51.1 °F 59% 30.10 in 10.0 mi NE 5.8 mph - N/A   Mostly Cloudy
4:53 AM 66.0 °F 52.0 °F 60% 30.10 in 10.0 mi Calm Calm - N/A   Mostly Cloudy
5:53 AM 66.9 °F 53.1 °F 61% 30.12 in 10.0 mi North 4.6 mph - N/A   Mostly Cloudy
6:53 AM 64.9 °F 51.1 °F 61% 30.11 in 10.0 mi East 4.6 mph - N/A   Mostly Cloudy
7:53 AM 68.0 °F 53.6 °F 60% 30.12 in 10.0 mi ENE 6.9 mph - N/A   Mostly Cloudy
8:53 AM 70.0 °F 52.0 °F 53% 30.14 in 10.0 mi East 13.8 mph - N/A   Mostly Cloudy
9:53 AM 71.1 °F 53.1 °F 53% 30.14 in 10.0 mi ENE 12.7 mph 17.3 mph N/A   Mostly Cloudy
10:53 AM 72.0 °F 54.0 °F 53% 30.15 in 10.0 mi East 16.1 mph - N/A   Mostly Cloudy
11:53 AM 73.9 °F 53.1 °F 48% 30.15 in 10.0 mi East 12.7 mph 17.3 mph N/A   Mostly Cloudy
12:53 PM 75.0 °F 54.0 °F 48% 30.14 in 10.0 mi ESE 13.8 mph - N/A   Mostly Cloudy
1:53 PM 75.0 °F 54.0 °F 48% 30.12 in 10.0 mi East 10.4 mph 20.7 mph N/A   Mostly Cloudy
2:53 PM 73.9 °F 55.0 °F 52% 30.09 in 10.0 mi East 17.3 mph - N/A   Mostly Cloudy
3:53 PM 75.0 °F 55.0 °F 50% 30.09 in 10.0 mi East 13.8 mph - N/A   Mostly Cloudy
4:53 PM 75.0 °F 52.0 °F 44% 30.07 in 10.0 mi ESE 13.8 mph - N/A   Mostly Cloudy
5:53 PM 73.0 °F 55.0 °F 53% 30.08 in 10.0 mi ESE 12.7 mph - N/A   Mostly Cloudy
6:53 PM 73.0 °F 57.0 °F 57% 30.08 in 10.0 mi East 11.5 mph - N/A   Mostly Cloudy
7:53 PM 71.1 °F 54.0 °F 55% 30.09 in 10.0 mi East 13.8 mph - N/A   Scattered Clouds
8:53 PM 70.0 °F 55.0 °F 59% 30.09 in 10.0 mi East 9.2 mph - N/A   Scattered Clouds
9:53 PM 70.0 °F 55.0 °F 59% 30.12 in 10.0 mi East 10.4 mph - N/A   Partly Cloudy
10:53 PM 70.0 °F 55.9 °F 61% 30.12 in 10.0 mi East 8.1 mph - N/A   Partly Cloudy
11:53 PM 66.9 °F 55.9 °F 68% 30.12 in 10.0 mi East 4.6 mph - N/A   Scattered Clouds
12:53 AM 71.1 °F 59.0 °F 66% 30.10 in 10.0 mi ESE 10.4 mph - 0.00 in   Mostly Cloudy